Portada
METAR-TAF:

METAR-TAF

Aeroports :

Yao, Japó

latitud: 34-36N, longitud: 135-36E, altitud: 10 m

Observació

L'informe es va fer fa 26 minuts, a les 05:00 UTC
Vent 8 kt del Nord-Est
Temperatura 22°C
Humitat 69%
Pressió 1013 hPa
Visibilitat 10 km o més
Escasses núvols a una alçada de 2500 ft
Núvols disperses a una alçada de 5000 ft
Cel ennuvolat a una alçada de 12000 ft

METAR: RJOY 210500Z 04008KT 9999 FEW025 SCT050 BKN120 22/16 Q1013

Hora: 14:26 (05:26 UTC)


TAF: manca

Observacions i pronòstics meteorològics de més de 4000 aeroports (METAR i TAF).

Les estacions disponibles són els punts grocs i vermells al mapa.

Posi el ratolí al punt desitjat per veure el nom de l'estació.

Feu clic per veure les observacions i els pronòstics meteorològics.

Per canviar el mapa: feu clic els botons verds amb una creu de color negre per apropar; al botó verd amb un guió per allunyar la imatge; o en les fletxes verdes per a mapes adjacents.


METAR-TAF: